Location: Molveno
(46.1500°N, 10.9667°E)
Time: 08:14:18
(UTC+00:00)

Terra - Pass Details

Date: 05 July 2020
Orbit: 701 x 703 km, 98.2° (Epoch: 06 August)

Event Time Altitude Azimuth Distance (km) Brightness Sun altitude
Exits shadow 20:31:38 15° 133° (SE) 1,835 3.3 -11.2°
Maximum altitude 20:35:10 41° 69° (ENE) 1,016 2.5 -11.6°
Drops below altitude 10° 20:39:38 10° 360° (N) 2,182 5.2 -12.1°
Sets 20:42:00 0° 353° (N) 3,105 6.3 -12.3°
